星链-5430 (STARLINK-5430 )

导读 | 豆包AI

STARLINK-5430是美国SpaceX公司星链星座的V1.5批次卫星,由猎鹰9号火箭于2022年12月17日发射,属于星链Group 4-16任务。卫星重量约297千克,运行在约548公里高度的近地轨道,配备相控阵通信天线与氪离子推进系统,为全球提供低延迟宽带互联网服务,目前在轨正常工作,是星链数万颗规模卫星互联网星座的组成单元。

Basic Information
目录编号:
54803
目录名称:
STARLINK-5430
国际标识:
2022-175AX
轨道中心:
EARTH
卫星名称:
星链-5430
卫星全名:
星链-5430 (STARLINK-5430 )
卫星状态:
在轨 (已飞行1184 天)
发射日期:
2022-12-17 UTC
国别 :
美国 (US)
星等 :
--
Orbit Information
数据来源 国际轨道数据
星历时间: 2026-03-15T09:20:14+0800
11小时前
查看轨道信息
半长轴: 6917.849km
偏心率: 0.0001397
轨道倾角: 53.218°
近地点辐角 90.928°
升交点赤经 19.696°
平近点角 269.187°
近地点: 538.745km
远地点: 540.679km
周期: 95.437分钟
每日圈数: 15.088504
Detailed Information
固有亮度:
5
最大亮度:
2.5
卫星平台:
Starlink v1.5
覆盖范围:
全球
运营商:
太空探索技术公司
运营商所在国:
美国
制造商(研发单位):
太空探索技术公司
制造商所在国:
美国
使用方式:
暂无
Satellite Introduction
星链(Starlink)计划是由太空探索技术公司(SpaceX)提出的一个巨型低轨卫星互联网星座项目,计划在2019年至2024年间在太空搭建由约1.2万颗卫星组成的“星链”网络,其中1584颗将部署在地球上空550千米处的近地轨道,并从2020年开始工作。该卫星仍在工作。
2D Orbit Map
3D Orbit Map
Orbit Altitude Analysis Chart
Orbit Inclination Analysis Chart
Orbit Comprehensive Analysis Chart
View Comprehensive Chart